• In Hungary
  • List of Countries
  • For 7 days
  • Water Temperature
  • Satellite Maps
  • Weather Map
  • News
  • Weather Widgets
  • user-avatar
    Login

    Hourly Weather Kicznia

    Today, 21 October, Sunday

    Time Temperature Precipitation Wind Pressure Humidity
    00:00 +5°C° 0.1 mm 3 mps 725 mmHg 84%
    01:00 +5°C° 0.1 mm 3 mps 725 mmHg 84%
    02:00 +4°C° 0.2 mm 3 mps 725 mmHg 86%
    03:00 +4°C° 0.2 mm 3 mps 725 mmHg 88%
    04:00 +5°C° 0.2 mm 2 mps 724 mmHg 91%
    05:00 +5°C° 0.4 mm 2 mps 725 mmHg 90%
    06:00 +5°C° 0.4 mm 2 mps 725 mmHg 90%
    07:00 +5°C° 0 mm 3 mps 726 mmHg 90%
    08:00 +5°C° 0.4 mm 3 mps 726 mmHg 89%
    09:00 +5°C° 0.4 mm 3 mps 726 mmHg 89%
    10:00 +5°C° 0.4 mm 3 mps 726 mmHg 89%
    11:00 +7°C° 0 mm 3 mps 726 mmHg 85%
    12:00 +8°C° 0 mm 3 mps 727 mmHg 82%
    13:00 +8°C° 0 mm 3 mps 727 mmHg 75%
    14:00 +8°C° 0 mm 2 mps 727 mmHg 75%
    15:00 +8°C° 0 mm 2 mps 727 mmHg 75%
    16:00 +8°C° 0 mm 2 mps 727 mmHg 76%
    17:00 +8°C° 0 mm 1 mps 727 mmHg 79%
    18:00 +7°C° 0 mm 1 mps 727 mmHg 83%
    19:00 +6°C° 0 mm 1 mps 727 mmHg 86%
    20:00 +5°C° 0 mm 1 mps 727 mmHg 87%
    21:00 +5°C° 0 mm 1 mps 727 mmHg 88%
    22:00 +5°C° 0 mm 1 mps 728 mmHg 89%
    23:00 +5°C° 0 mm 1 mps 727 mmHg 89%

    Tomorrow, 22 October, Monday

    Time Temperature Precipitation Wind Pressure Humidity
    00:00 +3°C° 0 mm 0 mps 727 mmHg 89%
    01:00 +3°C° 0 mm 0 mps 727 mmHg 89%
    02:00 +3°C° 0 mm 0 mps 727 mmHg 89%
    03:00 +3°C° 0 mm 0 mps 727 mmHg 89%
    04:00 +4°C° 0 mm 1 mps 727 mmHg 89%
    05:00 +3°C° 0 mm 0 mps 727 mmHg 88%
    06:00 +3°C° 0 mm 0 mps 727 mmHg 87%
    07:00 +3°C° 0 mm 0 mps 727 mmHg 85%
    08:00 +6°C° 0 mm 0 mps 727 mmHg 76%
    09:00 +8°C° 0 mm 0 mps 727 mmHg 68%
    10:00 +10°C° 0 mm 0 mps 727 mmHg 59%
    11:00 +11°C° 0 mm 0 mps 727 mmHg 56%
    12:00 +13°C° 0 mm 1 mps 726 mmHg 53%
    13:00 +14°C° 0 mm 1 mps 726 mmHg 50%
    14:00 +13°C° 0 mm 1 mps 726 mmHg 55%
    15:00 +12°C° 0 mm 1 mps 725 mmHg 60%
    16:00 +11°C° 0 mm 1 mps 725 mmHg 64%
    17:00 +9°C° 0 mm 1 mps 725 mmHg 69%
    18:00 +8°C° 0 mm 1 mps 725 mmHg 74%
    19:00 +7°C° 0 mm 1 mps 725 mmHg 78%
    20:00 +7°C° 0 mm 1 mps 725 mmHg 78%
    21:00 +6°C° 0 mm 2 mps 725 mmHg 79%
    22:00 +6°C° 0 mm 2 mps 725 mmHg 79%
    23:00 +6°C° 0.2 mm 2 mps 725 mmHg 80%

    Day after tomorrow, 23 October, Tuesday

    Time Temperature Precipitation Wind Pressure Humidity
    00:00 +7°C° 0.2 mm 2 mps 725 mmHg 82%
    01:00 +7°C° 0.2 mm 2 mps 725 mmHg 83%
    02:00 +7°C° 0.2 mm 2 mps 725 mmHg 85%
    03:00 +5°C° 0.2 mm 3 mps 725 mmHg 87%
    04:00 +5°C° 0.2 mm 3 mps 725 mmHg 89%
    05:00 +5°C° 0 mm 3 mps 724 mmHg 89%
    06:00 +5°C° 0 mm 2 mps 724 mmHg 90%
    07:00 +5°C° 0 mm 2 mps 724 mmHg 90%
    08:00 +4°C° 0 mm 3 mps 724 mmHg 83%
    09:00 +5°C° 0 mm 3 mps 724 mmHg 75%
    10:00 +7°C° 0 mm 3 mps 723 mmHg 68%
    11:00 +6°C° 0.1 mm 4 mps 722 mmHg 66%
    12:00 +7°C° 0.1 mm 4 mps 721 mmHg 65%
    13:00 +7°C° 0.1 mm 4 mps 721 mmHg 63%
    14:00 +7°C° 0.2 mm 4 mps 720 mmHg 66%
    15:00 +6°C° 0.2 mm 5 mps 719 mmHg 69%
    16:00 +6°C° 0.2 mm 5 mps 718 mmHg 72%
    17:00 +6°C° 0.5 mm 5 mps 717 mmHg 75%
    18:00 +5°C° 0.5 mm 6 mps 716 mmHg 77%
    19:00 +4°C° 0.5 mm 6 mps 716 mmHg 80%
    20:00 +5°C° 0.5 mm 6 mps 715 mmHg 81%
    21:00 +5°C° 0.5 mm 7 mps 714 mmHg 81%
    22:00 +5°C° 0.5 mm 7 mps 713 mmHg 82%
    23:00 +6°C° 0.8 mm 7 mps 713 mmHg 83%

    24 October, Wednesday

    Time Temperature Precipitation Wind Pressure Humidity
    00:00 +7°C° 0.8 mm 6 mps 712 mmHg 85%
    01:00 +7°C° 0.8 mm 6 mps 711 mmHg 86%
    02:00 +8°C° 1.2 mm 7 mps 710 mmHg 86%
    03:00 +7°C° 1.2 mm 8 mps 709 mmHg 86%
    04:00 +7°C° 1.2 mm 8 mps 709 mmHg 85%
    05:00 +7°C° 2 mm 8 mps 709 mmHg 83%
    06:00 +6°C° 2 mm 8 mps 709 mmHg 80%
    07:00 +5°C° 2 mm 8 mps 709 mmHg 77%
    08:00 +4°C° 0.3 mm 8 mps 710 mmHg 72%
    09:00 +3°C° 0.3 mm 9 mps 710 mmHg 68%
    10:00 +2°C° 0.3 mm 9 mps 711 mmHg 63%
    11:00 +2°C° 0.1 mm 9 mps 712 mmHg 60%
    12:00 +2°C° 0.1 mm 9 mps 712 mmHg 57%
    13:00 +2°C° 0.1 mm 9 mps 712 mmHg 54%
    14:00 +2°C° 0.1 mm 8 mps 713 mmHg 55%
    15:00 +2°C° 0.1 mm 8 mps 713 mmHg 55%
    16:00 +3°C° 0.1 mm 7 mps 713 mmHg 56%
    17:00 +2°C° 0.1 mm 7 mps 714 mmHg 57%
    18:00 +2°C° 0.1 mm 7 mps 714 mmHg 58%
    19:00 +1°C° 0.1 mm 6 mps 715 mmHg 59%
    20:00 +1°C° 0 mm 6 mps 716 mmHg 61%
    21:00 +1°C° 0 mm 6 mps 716 mmHg 62%
    22:00 -1°C° 0 mm 6 mps 717 mmHg 64%
    23:00 -1°C° 0 mm 6 mps 717 mmHg 66%

    25 October, Thursday

    Time Temperature Precipitation Wind Pressure Humidity
    00:00 -1°C° 0 mm 6 mps 718 mmHg 67%
    01:00 0°C° 0 mm 5 mps 718 mmHg 69%
    02:00 0°C° 0 mm 5 mps 718 mmHg 72%
    03:00 -1°C° 0 mm 5 mps 719 mmHg 75%
    04:00 -1°C° 0 mm 5 mps 719 mmHg 78%
    05:00 -1°C° 0 mm 4 mps 719 mmHg 79%
    06:00 -1°C° 0 mm 4 mps 720 mmHg 80%
    07:00 -1°C° 0 mm 4 mps 720 mmHg 81%
    08:00 0°C° 0 mm 4 mps 720 mmHg 75%
    09:00 +2°C° 0 mm 5 mps 720 mmHg 69%
    10:00 +3°C° 0 mm 5 mps 721 mmHg 63%
    11:00 +5°C° 0 mm 5 mps 720 mmHg 61%
    12:00 +6°C° 0 mm 5 mps 720 mmHg 60%
    13:00 +5°C° 0 mm 6 mps 720 mmHg 58%
    14:00 +6°C° 0.1 mm 5 mps 719 mmHg 64%
    15:00 +6°C° 0.1 mm 4 mps 719 mmHg 71%
    16:00 +5°C° 0.1 mm 4 mps 719 mmHg 77%
    17:00 +5°C° 0 mm 4 mps 719 mmHg 79%
    18:00 +5°C° 0 mm 4 mps 719 mmHg 80%
    19:00 +6°C° 0 mm 4 mps 719 mmHg 81%
    20:00 +6°C° 0 mm 4 mps 719 mmHg 84%
    21:00 +7°C° 0 mm 3 mps 719 mmHg 86%
    22:00 +7°C° 0 mm 3 mps 719 mmHg 88%
    23:00 +7°C° 0 mm 3 mps 718 mmHg 89%

    26 October, Friday

    Time Temperature Precipitation Wind Pressure Humidity
    00:00 +5°C° 0 mm 3 mps 718 mmHg 90%
    01:00 +5°C° 0 mm 3 mps 718 mmHg 91%
    02:00 +5°C° 0 mm 3 mps 718 mmHg 91%
    03:00 +6°C° 0 mm 2 mps 718 mmHg 91%
    04:00 +6°C° 0 mm 2 mps 718 mmHg 91%
    05:00 +6°C° 0 mm 2 mps 718 mmHg 92%
    06:00 +5°C° 0 mm 2 mps 718 mmHg 92%
    07:00 +5°C° 0 mm 2 mps 718 mmHg 92%
    08:00 +7°C° 0 mm 2 mps 718 mmHg 84%
    09:00 +9°C° 0 mm 2 mps 718 mmHg 77%
    10:00 +10°C° 0 mm 2 mps 718 mmHg 70%
    11:00 +11°C° 0 mm 3 mps 718 mmHg 66%
    12:00 +12°C° 0 mm 3 mps 717 mmHg 63%
    13:00 +13°C° 0 mm 3 mps 717 mmHg 60%
    14:00 +13°C° 0 mm 2 mps 717 mmHg 65%
    15:00 +12°C° 0 mm 2 mps 716 mmHg 69%
    16:00 +10°C° 0 mm 2 mps 716 mmHg 74%
    17:00 +9°C° 0 mm 2 mps 716 mmHg 78%
    18:00 +8°C° 0 mm 2 mps 716 mmHg 82%
    19:00 +7°C° 0 mm 3 mps 715 mmHg 85%
    20:00 +7°C° 0 mm 3 mps 715 mmHg 86%
    21:00 +7°C° 0 mm 3 mps 715 mmHg 87%
    22:00 +7°C° 0 mm 3 mps 715 mmHg 88%
    23:00 +7°C° 0 mm 3 mps 715 mmHg 88%
    Show more